Regional Weather Roundup
Issued by NWS

Home | Current Version | Previous Version | Graphics & Text | Print | Product List | Glossary On
Versions: 1 2 3 4 5 6 7 8 9 10 11 12 13 14 15 16 17 18 19 20 21 22 23 24 25 26 27 28 29 30 31 32 33 34 35 36 37 38 39 40 41 42 43 44 45 46 47 48 49 50
824
ASUS45 KPSR 170210
RWRAZ

ARIZONA HOURLY REGIONAL WEATHER ROUNDUP
NATIONAL WEATHER SERVICE PHOENIX AZ
700 PM MST WED AUG 16 2017

NOTE: FAIR INDICATES FEW OR NO CLOUDS BELOW 12,000 FEET WITH NO
SIGNIFICANT WEATHER AND/OR OBSTRUCTIONS TO VISIBILITY.

AZZ001>003-036-170300-
NORTHWEST ARIZONA

CITY           SKY/WX    TMP DP  RH WIND       PRES   REMARKS
BULLHEAD CITY  CLEAR     99  32   9 SW7       29.75S
KINGMAN        CLEAR     86  41  20 SW9       29.97S
$$

AZZ004>008-015-016-018-170300-
NORTH CENTRAL ARIZONA

CITY           SKY/WX    TMP DP  RH WIND       PRES   REMARKS
GRAND CANYON   PTCLDY    71  34  25 W6        30.22S
WILLIAMS       CLEAR     70  39  32 S6        30.22S
PRESCOTT       CLEAR     76  42  29 SW7       30.10S
FLAGSTAFF      CLEAR     67  38  34 SW5       30.25S
PAYSON           N/A     79  36  21 VRB6      30.13S
PAGE           CLEAR     87  29  12 E5        29.99S
$$

AZZ009>014-017-170300-
NORTHEAST ARIZONA

CITY           SKY/WX    TMP DP  RH WIND       PRES   REMARKS
WINSLOW        PTCLDY    82  37  20 SW8       30.08R
SAINT JOHNS    CLEAR     77  34  21 W8        30.14R
WINDOW ROCK    CLEAR     72  33  24 SW6       30.21R
SHOW LOW       CLEAR     72  34  25 SW8       30.22R
$$

AZZ540-542>544-546-548-170300-
GREATER PHOENIX AREA

CITY           SKY/WX    TMP DP  RH WIND       PRES   REMARKS
PHOENIX        PTCLDY    99  42  14 CALM      29.78S
BUCKEYE        CLEAR     99  41  13 SE3       29.79S
GLENDALE       CLEAR     99  45  15 CALM      29.80F
LUKE AFB       CLEAR     97  49  20 NE3       29.78S
DEER VALLEY    CLEAR     96  39  13 CALM      29.81S
SCOTTSDALE     CLEAR     97  38  13 SE3       29.83S
MESA-FALCON    CLEAR     97  41  14 SW6       29.82S
MESA-GATEWAY   CLEAR     97  37  12 VRB6      29.82F
$$

AZZ539-553-170300-
SOUTHWEST MARICOPA COUNTY AND PINAL COUNTY

CITY           SKY/WX    TMP DP  RH WIND       PRES   REMARKS
CASA GRANDE    CLEAR     97  42  15 S6        29.83S
GILA BEND      CLEAR    100  17   5 SW7       29.76S
$$

AZZ503-504-507>509-170300-
SOUTHEAST ARIZONA

CITY           SKY/WX    TMP DP  RH WIND       PRES   REMARKS
TUCSON         CLEAR     91  46  21 SW6       29.93S
DAVIS-MONTHAN  CLEAR     92  48  21 SW7       29.93R
NOGALES        CLEAR     81  51  35 S5        30.05S
SIERRA VISTA   CLEAR     80  46  29 W10       30.12R
DOUGLAS        CLEAR     83  44  25 E5        30.06S
SAFFORD        CLEAR     88  39  17 W9        29.94S
$$

AZZ532-170300-
SOUTHWEST ARIZONA

CITY           SKY/WX    TMP DP  RH WIND       PRES   REMARKS
YUMA           NOT AVBL
$$

CAZ041-043-047-048-061-525>527-560>570-170300-
SOUTHERN CALIFORNIA

CITY           SKY/WX    TMP DP  RH WIND       PRES   REMARKS
DOWNTOWN L.A.  CLEAR     72  60  66 VRB5      29.92S
L.A. AIRPORT   PTCLDY    69  62  78 W13       29.93S
SAN DIEGO      PTCLDY    71  60  68 NW12      29.94S
BURBANK        CLEAR     73  58  59 S10       29.92S
ONTARIO        CLEAR     77  59  53 SW13      29.91S
RIVERSIDE      CLEAR     76  60  57 W16       29.91R
PALM SPRINGS   CLEAR     95  47  19 W17G28    29.77S
EL CENTRO NAS  CLEAR     98  45  16 W17       29.73F
IMPERIAL       CLEAR     96  53  23 W12       29.71S
BLYTHE         CLEAR     99  32   9 S12       29.74S
NEEDLES        CLEAR    100  30   8 SW10      29.77S
$$

NVZ020-UTZ003-170300-
SOUTHERN NEVADA-UTAH

CITY           SKY/WX    TMP DP  RH WIND       PRES   REMARKS
LAS VEGAS      PTCLDY    94  40  15 SE6       29.85S
SALT LAKE CITY MOCLDY    84  37  18 N6        30.01S
$$

NMZ009-TXZ055-170300-
NEW MEXICO-WEST TEXAS

CITY           SKY/WX    TMP DP  RH WIND       PRES   REMARKS
ALBUQUERQUE    PTCLDY    85  35  16 SW10      30.09R
EL PASO        PTCLDY    89  46  22 W9        30.00R
$$


........................KEY........................
SKY/WX - SKY CONDITION/WEATHER
TMP    - TEMPERATURE IN FAHRENHEIT
DP     - DEW POINT IN FAHRENHEIT
RH     - RELATIVE HUMIDITY IN PERCENT
WIND   - DIRECTION AND SPEED IN MILES PER HOUR (MPH)
VRB    - VARIABLE WIND DIRECTION
PRES   - MEAN SEA LEVEL PRESSURE IN INCHES OF MERCURY
         F - FALLING PRESSURE   R - RISING PRESSURE
         S - STEADY PRESSURE
VSB    - VISIBILITY IN MILES
HX     - HEAT INDEX IN FAHRENHEIT
WCI    - WIND CHILL INDEX IN FAHRENHEIT
TC     - TEMPERATURE IN CELSIUS WHICH IS ALSO KNOWN AS
         TEMPERATURE IN CENTIGRADE
AFB    - AIR FORCE BASE
         LUKE AFB IS LUKE AIR FORCE BASE
         DAVIS-MONTHAN IS DAVIS-MONTHAN AIR FORCE BASE
NAS    - NAVAL AIR STATION
         EL CENTRO NAS IS EL CENTRO NAVAL AIR STATION
N/A    - NOT AVAILABLE





USA.gov is the U.S. government's official web portal to all federal, state and local government web resources and services.